#timestamp,LO_Frequency,Hit,StdDev 
1615687215.3,286047000.6,N
1615687235.1,286046998.1,N
1615687255.9,286047000.7,N
1615687275.7,286046999.5,N
1615687295.5,286046996.9,N
1615687315.4,286046998.7,N
1615687335.2,286046996.8,N
1615687355.1,286046997.6,N
1615687356.0,286046997.6,N
1615687375.8,286046995.5,Y
1615687395.6,286046996.0,P
1615687415.5,286046997.4,N
1615687435.3,286046995.2,P
1615687455.1,286046997.4,N
1615687475.9,286046997.6,N
1615687495.7,286046998.2,N
1615687515.6,286046998.4,N
1615687535.4,286046999.6,N
1615687555.2,286046997.2,N
1615687575.1,286046997.8,N
1615687576.0,286046997.8,N
1615687595.8,286046997.5,N
1615687615.6,286046999.0,N
1615687635.5,286046996.8,N
1615687655.3,286046997.0,N
1615687675.2,286046995.0,Y
1615687695.9,286046999.4,P
1615687715.7,286046996.9,P
1615687735.6,286046998.3,N
1615687755.4,286046999.7,N
1615687775.3,286047004.4,Y
1615687795.1,286047005.9,P
1615687796.0,286047005.9,N
1615687815.8,286047003.6,N
1615687835.7,286047003.9,N
1615687855.5,286047004.3,N
1615687875.3,286047003.8,N
1615687895.2,286047003.6,N
1615687915.0,286047003.8,N
1615687915.9,286047003.8,N
1615687935.8,286047001.9,N
1615687955.6,286047003.7,N
1615687975.4,286047005.8,Y
1615687995.3,286047000.3,P
1615688015.1,286047000.6,N
1615688035.8,286047000.5,N
1615688055.7,286047002.2,N
1615688075.5,286047001.3,N
1615688095.4,286047002.8,N
1615688115.2,286047002.7,N
1615688135.0,286047003.6,Y
1615688135.9,286047003.6,P
1615688155.8,286047002.8,N
1615688175.6,286047002.3,N
1615688195.5,286047002.5,Y
1615688215.3,286047000.8,P
1615688235.1,286047001.2,N
1615688255.9,286046999.0,N
1615688275.7,286046997.4,N
1615688295.5,286046997.2,N
1615688315.4,286046996.6,N
1615688335.2,286046997.5,N
1615688355.0,286046997.7,N
1615688356.0,286046997.7,N
1615688375.8,286046997.4,N
1615688395.6,286046997.0,N
1615688415.5,286046996.8,N
1615688435.3,286046995.5,N
1615688455.1,286046998.0,N
1615688475.9,286046996.5,N
1615688495.7,286046999.5,N
1615688515.5,286046997.3,N
1615688535.4,286046997.3,N
1615688555.2,286046996.5,N
1615688575.1,286046997.8,N
1615688576.0,286046997.8,N
1615688595.8,286046997.1,N
1615688615.6,286046999.5,N
1615688635.5,286046998.9,N
1615688655.3,286046997.4,N
1615688675.1,286046998.7,N
1615688695.9,286047000.5,N
1615688715.7,286046998.6,N
1615688735.6,286046998.2,N
1615688755.4,286046998.3,N
1615688775.2,286046998.5,N
1615688795.1,286046998.9,N
1615688796.0,286046998.9,N
1615688815.8,286046999.2,N
1615688835.6,286046996.8,Y
1615688855.5,286047000.5,P
1615688875.3,286046998.7,N
1615688895.2,286047000.9,N
1615688915.9,286046998.4,N
1615688935.7,286046996.7,N
1615688955.6,286046999.0,N
1615688975.4,286046999.2,N
1615688995.2,286046999.3,N
1615689015.1,286046999.4,N
1615689016.0,286046999.4,N
1615689035.8,286046998.8,N
1615689055.7,286046999.5,N
1615689075.5,286046996.8,Y
1615689095.3,286046999.1,P
1615689115.2,286047000.6,P
1615689135.0,286046998.1,N
1615689135.9,286046998.1,N
1615689155.8,286047000.8,N
1615689175.6,286047000.8,N
1615689195.4,286047000.8,N
1615689215.3,286047000.9,N
1615689235.1,286047000.3,N
1615689236.0,286047000.3,N
1615689255.8,286046998.4,N
1615689275.7,286047001.1,N
1615689295.5,286047001.0,N
1615689315.3,286047001.1,N
1615689335.2,286047000.8,N
1615689355.0,286046998.8,N
1615689355.9,286046998.8,N
1615689375.8,286047000.8,N
1615689395.6,286047004.3,Y
1615689415.4,286047002.1,P
1615689435.3,286047004.2,P
1615689455.1,286047004.6,N
1615689475.9,286047005.0,N
1615689495.7,286047003.5,N
1615689515.5,286047004.1,N
1615689535.4,286046999.7,N
1615689555.2,286047002.2,N
1615689575.0,286047000.2,N
1615689575.9,286047000.2,N
1615689595.8,286047000.8,N
1615689615.6,286047000.9,N
1615689635.4,286047000.8,N
1615689655.3,286047002.8,N
1615689675.1,286046999.9,N
1615689695.9,286047002.1,N
1615689715.7,286046999.9,N
1615689735.5,286047000.0,N
1615689755.4,286047000.7,N
1615689775.2,286046999.8,N
1615689795.0,286047000.4,N
1615689795.9,286047000.4,N
1615689815.8,286047000.9,N
1615689835.6,286046999.9,N
1615689855.5,286047001.1,N
1615689875.3,286047001.0,N
1615689895.1,286047000.7,N
1615689915.9,286047001.1,N
1615689935.7,286047001.1,N
1615689955.5,286046998.7,N
1615689975.4,286047001.2,N
1615689995.2,286047000.8,N
1615690015.0,286047000.6,N
1615690016.0,286047000.6,N
1615690035.8,286047002.7,N
1615690055.6,286047002.4,N
1615690075.5,286047002.6,N
1615690095.3,286047000.0,N
1615690115.1,286047001.2,N
1615690135.9,286047002.8,N
1615690155.7,286047001.5,N
1615690175.5,286047002.3,N
1615690195.4,286047001.6,N
1615690215.2,286047000.1,N
1615690235.1,286047000.5,N
1615690236.0,286047000.5,N
1615690255.8,286047000.1,N
1615690275.6,286047002.5,N
1615690295.5,286047004.4,Y
1615690315.3,286047003.9,P
1615690335.2,286047001.7,N
1615690355.9,286047005.9,P
1615690375.7,286047003.5,N
1615690395.6,286046999.8,N
1615690415.4,286047000.6,N
1615690435.2,286046998.3,N
1615690455.1,286046997.6,N
1615690456.0,286046997.6,N
1615690475.8,286046996.8,N
1615690495.6,286046999.5,N
1615690515.5,286046999.3,N
1615690535.3,286046998.8,N
1615690555.2,286046999.1,N
1615690575.9,286046996.5,N
1615690595.7,286046997.4,N
1615690615.6,286046997.8,N
1615690635.4,286046996.8,N
1615690685.3,286046995.9,E
1615690695.2,286046998.5,N
1615690715.0,286047001.4,P
1615690715.9,286047001.4,N
1615690735.8,286047005.2,Y
1615690755.6,286047006.3,P
1615690775.4,286047006.2,N
1615690795.3,286047008.6,P
